Regional Weather Roundup
Issued by NWS

Home | Current Version | Previous Version | Graphics & Text | Print | Product List | Glossary On
Versions: 1 2 3 4 5 6 7 8 9 10 11 12 13 14 15 16 17 18 19 20 21 22 23 24 25 26 27 28 29 30 31 32 33 34 35 36 37 38 39 40 41 42 43 44 45 46 47 48 49 50
000
ASUS43 KFSD 050410
RWRSD

WEATHER ROUNDUP FOR SOUTH DAKOTA
NATIONAL WEATHER SERVICE SIOUX FALLS SD
1000 PM CST WED MAR 04 2015

NOTE: "FAIR" INDICATES FEW OR NO CLOUDS BELOW 12,000 FEET WITH NO
SIGNIFICANT WEATHER AND/OR OBSTRUCTIONS TO VISIBILITY.


SDZ001>005-009-010-012>017-050500-
NORTHWEST AND NORTH CENTRAL SOUTH DAKOTA

CITY           SKY/WX    TMP DP  RH WIND       PRES   REMARKS
BUFFALO          N/A      5  -6  60 S8        30.12S WCI  -8
FAITH            N/A      6 -10  47 SE8       30.26S WCI  -7
MOBRIDGE       CLEAR      0  -9  65 SE5       30.33R WCI -10
$$

SDZ012>016-024>037-041>051-057-063-072>074-050500-
SOUTHWEST AND SOUTH CENTRAL SOUTH DAKOTA

CITY           SKY/WX    TMP DP  RH WIND       PRES   REMARKS
RAPID CTY ARPT CLEAR      4  -4  69 CALM      30.24R
PIERRE         PTCLDY    -2 -11  65 E3        30.38R
CUSTER         CLEAR     -2 -11  65 SW6       30.05S WCI -14
ELLSWORTH AFB  CLEAR      8  -4  59 S6        30.22R WCI  -2
PHILIP         PTCLDY     0  -8  69 W6        30.34R WCI -12
PINE RIDGE     CLEAR     -2  -7  79 NE3       30.26R
SPEARFISH      FAIR       5  -6  61 CALM      30.16S
WINNER         FAIR       4  -7  60 S3        30.38R
$$

SDZ004>011-016>023-039-040-050500-
NORTHEAST SOUTH DAKOTA

CITY           SKY/WX    TMP DP  RH WIND       PRES   REMARKS
ABERDEEN       PTCLDY    -9 -17  68 CALM      30.43R
WATERTOWN      PTCLDY    -9 -15  75 W5        30.36R WCI -20
SISSETON         N/A     -5 -12  72 NW9       30.41R WCI -22
$$

SDZ017-020-022-023-036>040-048>070-050500-
SOUTHEAST SOUTH DAKOTA

CITY           SKY/WX    TMP DP  RH WIND       PRES   REMARKS
SIOUX FALLS    CLEAR     -3  -9  75 CALM      30.44R
HURON          MOCLDY    -8 -13  78 W3        30.45R
CHAMBERLAIN    PTCLDY    -1  -9  68 E3        30.41R
MITCHELL       CLEAR     -2  -7  79 N7        30.46R WCI -15
YANKTON        FAIR       3  -8  60 CALM      30.48R
$$

ABBREVIATIONS USED IN REMARKS
   TC - TEMPERATURE IN CELSIUS
  WCI - WIND CHILL INDEX
   HX - HEAT INDEX
  VSB - VISIBILITY



USA.gov is the U.S. government's official web portal to all federal, state and local government web resources and services.